STARLINK-1222 (45228 NORAD) Tracking and Keplerian Element Data

This shows tracking and keplerian element data for the satellite.

Feedback or suggestion? Click here.




ElementValue
Catalog45228
NameSTARLINK-1222
Epoch Orbit2241
Epoch Day190.25001157
Epoch Year2020
RAAN301.1828
Inclination52.999
Eccentricity0.0001018
Argument of Perigee106.9161
Mean Anonmoly3.4823
Mean Motion15.05572245
Decay Rate0.00032528
L11 45228U 20012BC 20190.25001157 .00032528 00000-0 22418-2 0 9998
L22 45228 52.9990 301.1828 0001018 106.9161 3.4823 15.05572245 22419

Live tracking and technical data element details for STARLINK-1222 (NORAD 45228). STARLINK-1222 can be tracked NOW for your location showing map with azimuth and elevation plus other details from your city location.

Track the satellite on the map from your city or location and see movement details for azimuth, elevation, latitude, longitude, range, height, and movement on the map or in text.







IsCatalogInMostPopularTable: catalog: 45228, numindb: 27
Update: records affected: 1



GetName: 45228 STARLINK-1222

Hit Count: updated at: Fri, 10 Jul 2020 04:18:45 GMT